This is the latest recevied weather packets stored in our database for station/object M0JUI-1. If no packets are shown the sender has not sent any weather packets the latest 10 day(s).
| Time | Temp. | Humidity | Pressure | Rain* | Wind** | Luminosity | Snow |
|---|---|---|---|---|---|---|---|
| 1788163244 | 13.89° C | 13% | 1008.2 hPa | 0 mm | - | 316 W/m² | - |
| 1788162944 | 13.89° C | 15% | 1008.2 hPa | 0 mm | - | 141 W/m² | - |
| 1788162644 | 13.33° C | 17% | 1007.9 hPa | 0 mm | - | 88 W/m² | - |
| 1788162344 | 13.89° C | 19% | 1008.1 hPa | 0 mm | - | 87 W/m² | - |
| 1788162044 | 13.33° C | 20% | 1008.1 hPa | 0 mm | - | 117 W/m² | - |
| 1788161745 | 13.33° C | 21% | 1007.9 hPa | 0 mm | - | 100 W/m² | - |
| 1788161444 | 13.33° C | 23% | 1007.8 hPa | 0 mm | - | 163 W/m² | - |
| 1788161144 | 12.78° C | 24% | 1007.8 hPa | 0 mm | - | 90 W/m² | - |
| 1788160844 | 12.78° C | 24% | 1007.7 hPa | 0 mm | - | 55 W/m² | - |
| 1788160545 | 12.78° C | 25% | 1007.6 hPa | 0 mm | - | 75 W/m² | - |
| 1788160244 | 12.78° C | 25% | 1007.7 hPa | 0 mm | - | 105 W/m² | - |
| 1788159944 | 12.78° C | 26% | 1007.4 hPa | 0 mm | - | 63 W/m² | - |
| 1788159647 | 12.78° C | 26% | 1007.4 hPa | 0 mm | - | 56 W/m² | - |
| 1788159344 | 12.22° C | 27% | 1007.3 hPa | 0 mm | - | 52 W/m² | - |
| 1788159044 | 12.22° C | 27% | 1007.1 hPa | 0 mm | - | 52 W/m² | - |
| 1788158745 | 11.67° C | 27% | 1007.4 hPa | 0 mm | - | 48 W/m² | - |
| 1788158444 | 11.67° C | 27% | 1007 hPa | 0 mm | - | 31 W/m² | - |
| 1788158144 | 11.67° C | 27% | 1007.2 hPa | 0 mm | - | 40 W/m² | - |
| 1788157845 | 11.67° C | 27% | 1006.9 hPa | 0 mm | - | 41 W/m² | - |
| 1788157544 | 11.67° C | 27% | 1007 hPa | 0 mm | - | 35 W/m² | - |
| 1788157244 | 11.67° C | 27% | 1006.7 hPa | 0 mm | - | 24 W/m² | - |
| 1788156944 | 11.67° C | 27% | 1006.9 hPa | 0 mm | - | 26 W/m² | - |
| 1788156644 | 11.67° C | 27% | 1006.8 hPa | 0 mm | - | 32 W/m² | - |
| 1788156352 | 11.67° C | 27% | 1006.7 hPa | 0 mm | - | 24 W/m² | - |
| 1788156044 | 11.67° C | 27% | 1006.5 hPa | 0 mm | - | 21 W/m² | - |
* Rain latest hour (hover to see other rain measurements)
** Current wind speed in m/s (hover to see current wind gust speed)